Monroe, MI

11:52 AM EST on February 24, 2018 (GMT -0500)
Custer

Weather History for KTTF - April, 2013

Change the Weather History Date:

Sunday, April 7, 2013

  Actual Average Record
Temperature  
Mean Temperature 52 °F -  
Max Temperature 60 °F 52 °F 81 °F (1954)
Min Temperature 44 °F 34 °F 11 °F (1982)
Degree Days  
Heating Degree Days 13    
Growing Degree Days 2 (Base 50)    
Moisture  
Dew Point 38 °F    
Average Humidity 51    
Maximum Humidity 67    
Minimum Humidity 29    
Precipitation  
Precipitation 0.00 in - - ()
Sea Level Pressure  
Sea Level Pressure 29.82 in    
Wind  
Wind Speed 16 mph (WSW)    
Max Wind Speed 29 mph    
Max Gust Speed 37 mph    
Visibility 10 miles    
Events Rain    
Averages and records for this station are not official NWS values.
T = Trace of Precipitation, MM = Missing Value Source: NWS Daily Summary

Daily Weather History Graph

Daily Weather History Graph

Search for Another Location

Airport or City:

Trip Planner

Search our weather history database for the weather conditions in past years. The results will help you decide how hot, cold, wet, or windy it might be!

Date:

Astronomy

Apr. 07, 2013 Rise Set
Actual Time 7:05 AM EDT 8:06 PM EDT
Civil Twilight 6:37 AM EDT 8:34 PM EDT
Nautical Twilight 6:03 AM EDT 9:08 PM EDT
Astronomical Twilight 5:28 AM EDT 9:44 PM EDT
Moon 5:25 AM EDT (4/7) 5:35 PM EDT (4/7)
Length of Visible Light 13h 57m
Length of Day
13h 00m
Waning Crescent, 8% of the Moon is Illuminated
Apr 7
Waning Crescent
Apr 10
New
Apr 18
First Quarter
Apr 25
Full
May 2
Last Quarter

Hourly Weather History & Observations

Time (EDT) Temp. Windchill Dew Point Humidity Pressure Visibility Wind Dir Wind Speed Gust Speed Precip Events Conditions
12:13 AM 53.6 °F - 24.8 °F 33% 29.79 in 10.0 mi South 15.0 mph 19.6 mph N/A   Mostly Cloudy
12:33 AM 55.4 °F - 23.0 °F 29% 29.77 in 10.0 mi South 13.8 mph - N/A   Mostly Cloudy
12:54 AM 55.4 °F - 24.8 °F 31% 29.76 in 10.0 mi South 12.7 mph 18.4 mph N/A   Mostly Cloudy
1:14 AM 57.2 °F - 24.8 °F 29% 29.75 in 10.0 mi South 13.8 mph 21.9 mph N/A   Mostly Cloudy
1:34 AM 57.2 °F - 26.6 °F 31% 29.74 in 10.0 mi South 18.4 mph 26.5 mph N/A   Mostly Cloudy
1:54 AM 59.0 °F - 28.4 °F 31% 29.73 in 10.0 mi South 16.1 mph 23.0 mph N/A   Overcast
2:14 AM 59.0 °F - 28.4 °F 31% 29.72 in 10.0 mi SSW 18.4 mph 26.5 mph N/A   Mostly Cloudy
2:34 AM 59.0 °F - 30.2 °F 34% 29.71 in 10.0 mi South 16.1 mph 26.5 mph N/A   Mostly Cloudy
2:54 AM 57.2 °F - 30.2 °F 36% 29.69 in 10.0 mi South 17.3 mph 26.5 mph N/A   Scattered Clouds
3:14 AM 57.2 °F - 30.2 °F 36% 29.68 in 10.0 mi SSW 15.0 mph 21.9 mph N/A   Scattered Clouds
3:34 AM 59.0 °F - 32.0 °F 36% 29.67 in 10.0 mi South 18.4 mph 23.0 mph N/A   Overcast
3:54 AM 59.0 °F - 33.8 °F 39% 29.67 in 10.0 mi SSW 15.0 mph 21.9 mph N/A   Overcast
4:15 AM 59.0 °F - 33.8 °F 39% 29.66 in 10.0 mi SSW 12.7 mph 19.6 mph N/A   Mostly Cloudy
4:35 AM 60.8 °F - 37.4 °F 42% 29.65 in 10.0 mi SW 20.7 mph 27.6 mph N/A   Scattered Clouds
4:55 AM 57.2 °F - 44.6 °F 63% 29.66 in 10.0 mi SW 11.5 mph 24.2 mph N/A Rain Light Rain
5:15 AM 57.2 °F - 42.8 °F 59% 29.65 in 10.0 mi SW 18.4 mph 27.6 mph N/A   Mostly Cloudy
5:35 AM 57.2 °F - 42.8 °F 59% 29.64 in 10.0 mi SW 12.7 mph 23.0 mph N/A   Mostly Cloudy
5:55 AM 59.0 °F - 41.0 °F 51% 29.64 in 10.0 mi SSW 17.3 mph 23.0 mph N/A   Scattered Clouds
6:15 AM 60.8 °F - 41.0 °F 48% 29.65 in 10.0 mi SW 18.4 mph 26.5 mph N/A   Mostly Cloudy
6:35 AM 60.8 °F - 39.2 °F 45% 29.65 in 10.0 mi SW 19.6 mph 26.5 mph N/A   Scattered Clouds
6:55 AM 60.8 °F - 41.0 °F 48% 29.65 in 10.0 mi SW 21.9 mph 31.1 mph N/A   Clear
7:16 AM 60.8 °F - 42.8 °F 52% 29.66 in 10.0 mi SW 24.2 mph 33.4 mph N/A   Clear
7:36 AM 60.8 °F - 42.8 °F 52% 29.68 in 10.0 mi WSW 24.2 mph 34.5 mph N/A   Scattered Clouds
7:56 AM 59.0 °F - 44.6 °F 59% 29.69 in 10.0 mi WSW 27.6 mph 34.5 mph N/A   Scattered Clouds
8:16 AM 59.0 °F - 44.6 °F 59% 29.71 in 10.0 mi WSW 28.8 mph 36.8 mph N/A   Mostly Cloudy
8:36 AM 57.2 °F - 44.6 °F 63% 29.72 in 10.0 mi WSW 21.9 mph 32.2 mph N/A   Mostly Cloudy
8:56 AM 57.2 °F - 46.4 °F 67% 29.73 in 10.0 mi WSW 21.9 mph 27.6 mph N/A   Clear
9:16 AM 57.2 °F - 46.4 °F 67% 29.73 in 10.0 mi WSW 23.0 mph 28.8 mph N/A   Scattered Clouds
9:36 AM 57.2 °F - 46.4 °F 67% 29.74 in 10.0 mi WSW 23.0 mph 31.1 mph N/A   Mostly Cloudy
9:51 AM 57.2 °F - 46.4 °F 67% 29.74 in 10.0 mi WSW 17.3 mph 29.9 mph N/A   Mostly Cloudy
10:11 AM 57.2 °F - 46.4 °F 67% 29.76 in 10.0 mi WSW 16.1 mph 26.5 mph N/A   Overcast
10:32 AM 55.4 °F - 44.6 °F 67% 29.77 in 10.0 mi West 23.0 mph 32.2 mph N/A   Overcast
10:52 AM 55.4 °F - 44.6 °F 67% 29.79 in 10.0 mi West 25.3 mph 31.1 mph N/A   Overcast
11:12 AM 55.4 °F - 42.8 °F 63% 29.80 in 10.0 mi West 21.9 mph 32.2 mph N/A   Overcast
11:32 AM 57.2 °F - 42.8 °F 59% 29.80 in 10.0 mi WSW 23.0 mph 29.9 mph N/A   Overcast
11:52 AM 57.2 °F - 42.8 °F 59% 29.81 in 10.0 mi West 20.7 mph 27.6 mph N/A   Mostly Cloudy
12:12 PM 57.2 °F - 44.6 °F 63% 29.82 in 10.0 mi West 21.9 mph 27.6 mph N/A   Mostly Cloudy
12:32 PM 57.2 °F - 42.8 °F 59% 29.83 in 10.0 mi West 24.2 mph 31.1 mph N/A   Overcast
12:52 PM 57.2 °F - 42.8 °F 59% 29.83 in 10.0 mi West 18.4 mph 29.9 mph N/A   Overcast
1:12 PM 57.2 °F - 42.8 °F 59% 29.85 in 10.0 mi West 25.3 mph 29.9 mph N/A   Overcast
1:33 PM 57.2 °F - 41.0 °F 55% 29.85 in 10.0 mi West 23.0 mph 31.1 mph N/A   Mostly Cloudy
1:53 PM 57.2 °F - 41.0 °F 55% 29.86 in 10.0 mi West 21.9 mph 28.8 mph N/A   Scattered Clouds
2:13 PM 59.0 °F - 39.2 °F 48% 29.87 in 10.0 mi West 23.0 mph 29.9 mph N/A   Scattered Clouds
2:33 PM 59.0 °F - 41.0 °F 51% 29.87 in 10.0 mi West 19.6 mph 27.6 mph N/A   Scattered Clouds
2:53 PM 59.0 °F - 39.2 °F 48% 29.88 in 10.0 mi West 17.3 mph 24.2 mph N/A   Scattered Clouds
3:13 PM 59.0 °F - 39.2 °F 48% 29.89 in 10.0 mi West 17.3 mph 25.3 mph N/A   Scattered Clouds
3:33 PM 60.8 °F - 39.2 °F 45% 29.89 in 10.0 mi WNW 18.4 mph 26.5 mph N/A   Clear
3:53 PM 60.8 °F - 37.4 °F 42% 29.90 in 10.0 mi WNW 20.7 mph 28.8 mph N/A   Clear
4:13 PM 60.8 °F - 37.4 °F 42% 29.90 in 10.0 mi West 16.1 mph - N/A   Clear
4:33 PM 60.8 °F - 37.4 °F 42% 29.91 in 10.0 mi West 19.6 mph 24.2 mph N/A   Clear
4:54 PM 60.8 °F - 37.4 °F 42% 29.92 in 10.0 mi West 15.0 mph 27.6 mph N/A   Clear
5:14 PM 60.8 °F - 37.4 °F 42% 29.92 in 10.0 mi West 10.4 mph 25.3 mph N/A   Clear
5:34 PM 60.8 °F - 35.6 °F 39% 29.93 in 10.0 mi West 15.0 mph 20.7 mph N/A   Clear
5:54 PM 60.8 °F - 35.6 °F 39% 29.94 in 10.0 mi WNW 17.3 mph 21.9 mph N/A   Clear
6:14 PM 59.0 °F - 35.6 °F 42% 29.94 in 10.0 mi WNW 16.1 mph 21.9 mph N/A   Clear
6:34 PM 57.2 °F - 35.6 °F 44% 29.95 in 10.0 mi WNW 15.0 mph - N/A   Clear
6:54 PM 57.2 °F - 35.6 °F 44% 29.95 in 10.0 mi WNW 12.7 mph 17.3 mph N/A   Clear
7:14 PM 55.4 °F - 35.6 °F 47% 29.95 in 10.0 mi WNW 8.1 mph - N/A   Clear
7:34 PM 55.4 °F - 35.6 °F 47% 29.96 in 10.0 mi WNW 6.9 mph - N/A   Clear
7:54 PM 53.6 °F - 35.6 °F 51% 29.96 in 10.0 mi NW 8.1 mph - N/A   Clear
8:15 PM 51.8 °F - 35.6 °F 54% 29.97 in 10.0 mi NNW 6.9 mph - N/A   Clear
8:35 PM 51.8 °F - 33.8 °F 50% 29.97 in 10.0 mi NNW 4.6 mph - N/A   Clear
8:55 PM 50.0 °F - 33.8 °F 54% 29.98 in 10.0 mi Calm Calm - N/A   Clear
9:15 PM 50.0 °F - 33.8 °F 54% 29.98 in 10.0 mi North 3.5 mph - N/A   Clear
9:35 PM 48.2 °F - 35.6 °F 62% 29.99 in 10.0 mi North 3.5 mph - N/A   Clear
9:55 PM 48.2 °F - 33.8 °F 58% 29.99 in 10.0 mi North 3.5 mph - N/A   Clear
10:15 PM 48.2 °F - 33.8 °F 58% 30.00 in 10.0 mi NNE 3.5 mph - N/A   Clear
10:35 PM 48.2 °F - 33.8 °F 58% 30.00 in 10.0 mi NE 3.5 mph - N/A   Clear
10:56 PM 46.4 °F - 33.8 °F 62% 30.01 in 10.0 mi Calm Calm - N/A   Clear
11:16 PM 46.4 °F 45.2 °F 33.8 °F 62% 30.00 in 10.0 mi NNE 3.5 mph - N/A   Clear
11:36 PM 44.6 °F 43.1 °F 33.8 °F 66% 30.01 in 10.0 mi NE 3.5 mph - N/A   Clear
11:56 PM 44.6 °F 43.1 °F 33.8 °F 66% 30.02 in 10.0 mi ENE 3.5 mph - N/A   Clear